Wind_Speed
7 6 6 8 6 1 5 5 5 7 10 11 11 10 6 4 6 6 7 8 3 5 5 6 10 10 8 9 6 7 9 8 6 5 14 21 22 21 19 20 20 18 18 18 19 16 13 15 17 18 19 19 20 19 19 19 17 16 16 15 13 11 8 8 11 11 10 9 9 9 7 8 7 4 7 10 9 8 8 7 6 5 6 6 5 5
4 6 7 11 5 4 6 8 7 7 9 9 10 8 6 6 6 2 6 5 4 2 7 6 10 10 9 8 4 4 8 7 7 8 8 15 19 21 21 20 21 20 19 19 18 18 17 16 18 18 18 19 21 21 20 20 19 17 16 15 13 11 9 10 12 12 11 8 7 8 7 8 7 6 7 7 7 5 4 4 4 4 4 3 2 2
5 8 11 13 4 4 2 6 8 9 9 8 8 7 6 8 7 4 8 2 2 2 6 7 9 10 6 5 5 5 8 5 6 9 11 12 14 18 24 23 22 22 21 21 19 21 22 19 18 18 18 19 20 21 22 20 20 18 17 16 13 11 10 11 12 12 13 11 9 9 9 8 9 10 8 4 3 4 4 4 3 5 8 7 6 8
6 5 5 3 2 2 3 5 7 7 7 7 7 7 7 8 9 2 6 1 4 1 4 9 8 10 7 4 7 10 10 7 8 12 14 13 12 12 27 29 24 24 23 22 22 21 22 22 20 19 18 19 20 21 22 21 21 19 17 17 14 12 11 11 11 10 10 11 11 11 11 10 7 7 7 3 5 6 6 5 5 8 10 7 7 9
10 4 4 4 4 1 3 4 6 6 6 8 8 9 10 9 10 6 2 4 4 4 4 9 8 6 8 6 7 9 8 9 12 13 12 12 13 10 24 34 28 27 25 21 22 20 20 22 22 20 18 19 21 23 23 23 22 20 18 17 15 13 12 11 10 8 7 7 8 9 10 10 5 5 7 6 6 7 6 5 7 8 8 8 9 8
7 2 3 1 2 3 5 6 8 7 6 8 9 10 11 12 11 8 5 2 2 5 6 7 7 5 7 8 9 10 8 9 10 10 9 11 12 9 18 34 29 24 23 21 22 22 21 22 22 22 20 19 22 24 24 24 22 21 19 17 15 13 13 11 9 8 7 7 7 7 9 9 7 8 9 6 6 7 4 4 6 7 6 7 8 6
3 3 1 5 5 5 7 8 9 8 7 6 5 7 10 10 10 9 10 7 4 6 3 6 6 5 5 8 9 8 9 10 8 8 9 10 11 10 14 29 28 21 19 18 19 20 23 24 24 23 22 21 22 23 25 24 23 21 20 18 16 14 13 12 10 9 9 7 7 9 9 9 10 10 8 6 6 5 4 4 6 6 7 7 7 7
2 3 3 4 6 5 7 8 8 9 8 3 3 8 10 9 9 10 10 8 6 7 4 5 7 6 5 8 7 5 6 10 9 7 8 10 13 14 14 19 24 27 25 22 21 20 21 24 23 22 23 23 22 22 25 25 23 22 21 19 16 15 15 13 12 11 10 8 8 10 12 11 11 10 9 8 6 5 5 6 7 6 7 7 7 8
2 3 3 4 7 6 7 9 8 8 8 4 2 5 8 9 10 9 8 7 6 6 6 7 8 7 5 7 6 6 6 6 8 7 8 9 10 12 13 13 15 21 23 22 21 20 20 20 20 19 19 22 23 23 25 26 24 22 21 19 17 16 16 14 14 13 12 10 9 12 14 13 11 10 9 8 6 6 6 7 7 5 6 7 7 8
3 5 5 6 7 6 8 11 8 7 7 4 4 6 8 10 10 7 7 7 6 6 7 7 8 7 5 6 5 5 7 7 7 8 9 8 7 6 6 5 5 8 11 13 14 16 18 18 17 14 15 20 24 24 23 25 24 23 22 20 19 18 17 15 15 14 13 12 11 13 15 14 13 12 10 8 7 7 6 6 7 5 6 7 7 8
6 6 5 6 8 8 9 10 6 5 6 4 5 8 9 9 7 6 6 6 6 6 7 10 11 9 6 4 2 0 5 5 2 4 4 3 3 5 6 4 4 5 7 10 13 14 13 14 12 9 12 20 24 23 22 23 24 24 24 23 21 20 18 17 16 16 15 14 12 14 16 15 14 13 12 10 8 8 7 6 6 5 5 5 6 7
9 7 6 6 9 11 10 9 5 5 8 7 6 7 7 6 5 6 5 5 6 6 6 9 10 11 9 3 2 2 3 5 3 2 2 3 2 8 8 4 3 3 5 5 8 9 5 6 8 8 14 22 25 22 21 21 22 24 25 25 24 22 20 18 18 18 17 16 14 14 17 16 14 14 14 11 9 8 7 6 6 5 3 2 4 6
8 8 7 7 10 9 8 7 6 8 8 6 7 5 5 5 4 5 5 4 5 6 4 4 8 8 6 4 4 6 4 5 8 6 5 4 6 8 5 4 3 2 3 7 13 9 3 2 6 11 15 20 22 22 22 20 20 22 24 25 26 25 23 20 19 20 19 18 16 15 18 18 15 15 14 11 9 9 7 6 7 6 3 2 1 2
6 7 9 10 7 9 7 6 6 6 5 6 6 4 4 4 5 5 5 4 4 6 5 1 3 5 3 4 5 7 6 5 9 10 8 6 8 6 3 5 5 4 6 11 13 8 4 3 4 7 10 13 17 20 21 19 19 20 22 24 26 26 25 23 21 21 21 20 18 17 18 19 18 17 15 12 10 9 8 7 7 7 5 4 3 1
6 5 6 8 4 6 7 7 7 6 4 6 6 5 5 5 5 5 3 4 4 4 5 2 1 3 2 4 4 6 8 6 8 9 9 7 7 5 4 6 8 10 12 12 11 9 6 6 5 6 7 8 12 16 18 18 18 19 21 23 25 26 26 25 23 23 23 22 21 18 18 20 19 18 17 13 11 11 9 8 8 8 8 7 6 5
7 6 6 8 6 4 5 8 8 7 6 5 4 6 6 4 5 5 4 6 4 4 5 2 2 2 2 2 1 5 6 6 8 9 9 8 8 8 6 8 11 12 12 11 10 10 9 9 9 8 8 7 7 9 13 15 15 16 20 23 25 26 26 26 24 24 24 23 23 20 18 19 19 18 18 15 13 12 11 11 10 9 10 9 8 8
5 6 5 5 6 6 9 10 7 4 3 3 4 5 3 3 5 5 5 6 4 5 5 4 5 3 3 4 4 5 7 7 9 9 10 10 10 10 9 10 13 12 10 10 10 11 11 12 12 11 9 7 5 4 7 9 10 13 17 21 25 26 25 25 25 24 24 24 23 21 19 19 17 16 17 16 13 12 12 13 11 10 10 10 10 11
4 5 6 4 6 9 11 9 9 9 8 5 4 3 2 4 6 4 4 4 4 6 4 4 7 6 3 3 6 9 9 9 9 9 11 12 12 11 12 13 14 14 13 12 12 13 13 13 13 12 11 8 5 3 4 6 9 12 14 17 21 24 22 22 23 23 23 23 23 22 20 19 17 15 15 14 13 12 12 13 13 12 11 11 12 13
3 5 6 7 9 10 9 5 7 11 12 10 8 5 3 4 4 3 4 4 5 6 4 5 8 7 4 2 6 11 9 8 10 10 11 11 12 12 13 13 14 14 14 13 13 13 13 13 13 12 12 10 8 5 3 5 7 10 12 13 16 20 20 17 19 20 20 21 20 20 20 18 18 16 14 13 13 12 12 12 13 13 12 12 13 13
3 4 5 6 10 10 5 4 5 7 9 12 10 7 5 4 4 4 4 4 5 6 4 6 7 4 2 3 1 6 3 3 6 9 9 9 13 13 12 12 13 14 14 14 14 14 13 13 12 13 12 9 9 9 6 4 3 5 8 9 10 15 17 14 14 16 16 17 16 16 17 17 16 15 14 14 13 13 13 12 12 12 11 12 13 13
3 3 4 6 9 9 4 4 6 5 6 7 6 6 5 4 4 5 5 5 5 6 5 5 6 1 3 3 1 5 3 3 6 3 7 9 13 13 12 12 12 14 15 15 15 14 14 13 12 12 11 9 9 9 7 7 6 5 6 6 7 11 14 12 11 12 14 15 14 15 16 16 15 14 15 15 14 13 14 13 12 12 12 12 13 14
2 3 4 6 6 7 6 7 7 5 6 6 4 4 5 4 4 5 5 5 3 4 3 5 6 0 2 3 1 4 6 3 4 3 6 13 13 13 13 12 12 14 15 15 15 15 15 14 13 11 11 12 10 7 6 8 8 6 6 7 7 8 12 14 14 14 15 15 15 15 16 17 16 15 15 15 15 14 14 14 14 14 14 14 15 16
3 3 5 7 7 8 11 12 11 8 7 9 7 5 6 6 5 5 5 3 3 3 2 5 6 1 2 5 4 4 3 7 0 3 7 14 14 13 13 12 12 13 14 14 15 15 15 15 15 14 14 13 12 9 9 8 7 6 5 5 7 8 11 15 17 17 15 13 14 14 16 17 16 15 15 16 17 16 15 16 16 16 16 16 18 18
3 3 5 7 7 9 12 14 14 11 8 7 7 7 8 8 8 7 7 5 4 6 4 5 5 1 2 4 4 5 4 7 7 8 10 13 12 13 13 12 12 12 13 13 13 13 14 14 15 15 15 14 13 12 12 10 8 8 6 3 3 4 6 11 14 15 12 11 14 16 16 17 16 16 17 20 21 18 17 18 18 18 18 19 20 20
2 3 4 6 6 7 8 8 10 9 7 5 4 6 7 9 11 9 6 5 5 7 7 7 5 1 2 2 2 3 5 7 11 13 14 12 12 13 12 12 12 12 12 12 12 12 12 12 13 13 14 14 13 13 13 12 11 10 9 7 4 3 4 6 6 6 6 8 14 16 16 17 17 17 19 22 23 20 20 22 23 22 22 23 24 25
3 3 3 5 5 5 6 4 3 3 3 3 4 7 7 10 12 8 3 4 5 6 7 7 5 1 5 3 1 2 3 5 5 7 11 12 12 12 11 11 11 11 11 11 11 11 10 10 11 11 12 12 12 13 13 12 12 11 11 10 9 7 6 5 4 4 4 4 8 9 8 10 12 13 16 19 20 20 21 24 25 23 22 23 26 29
4 4 6 8 8 8 9 9 9 8 7 7 8 11 10 9 11 6 3 4 5 6 6 7 6 4 3 3 2 1 4 4 4 6 7 9 10 10 9 9 9 9 11 11 10 10 10 10 10 10 10 10 10 11 11 11 11 11 10 10 9 8 8 8 7 5 5 5 5 3 2 3 5 6 9 13 16 18 19 22 22 20 19 22 25 29
3 5 8 11 12 13 14 15 16 14 12 12 13 14 14 12 10 6 5 7 7 6 6 6 7 9 9 8 4 1 4 4 5 4 5 7 8 9 7 6 7 8 8 9 9 9 9 10 10 9 10 9 9 9 9 9 10 10 9 8 7 7 7 8 7 6 4 4 4 2 1 1 3 3 5 8 11 13 15 17 18 18 19 21 24 27
4 6 8 11 13 14 15 15 16 14 13 14 14 15 15 14 13 10 9 10 10 9 8 8 10 11 10 9 8 9 7 4 6 5 3 6 8 9 8 8 7 8 8 8 9 10 9 8 8 9 8 8 8 8 8 8 8 8 8 7 7 6 5 5 6 5 3 2 2 1 1 1 2 3 4 5 6 9 11 12 13 14 15 17 20 24
4 4 6 9 11 13 14 14 15 14 14 14 15 16 15 14 15 14 12 12 12 12 13 13 14 13 11 8 8 11 12 10 9 8 6 9 10 10 11 13 11 10 10 10 10 10 8 6 6 6 7 6 7 8 7 7 6 6 6 6 5 4 4 3 2 3 2 2 1 1 1 1 3 4 4 5 5 7 9 10 11 12 12 13 16 19
2 2 4 6 8 10 11 13 13 13 14 14 14 15 15 15 15 14 12 10 10 11 13 14 13 10 9 9 10 12 13 13 12 13 13 12 13 14 14 14 14 12 10 8 10 10 7 6 5 4 5 5 5 6 6 5 5 4 4 4 3 3 2 0 1 1 1 0 1 2 2 2 3 4 5 6 6 8 9 9 11 13 13 14 15 16
3 3 5 5 7 8 9 11 13 12 13 14 12 12 14 14 12 11 10 9 8 9 10 11 9 7 7 9 12 14 15 13 12 14 13 9 12 17 17 16 16 14 10 7 8 9 8 7 6 4 4 3 3 4 4 4 4 4 3 3 3 2 1 1 0 0 0 1 2 2 3 4 4 5 6 7 7 8 9 10 11 13 13 14 16 18
3 4 4 5 6 7 9 11 10 10 10 10 8 7 10 13 12 11 11 12 12 11 8 7 8 8 8 9 10 10 10 10 10 13 10 9 15 15 12 14 16 15 13 12 11 11 9 7 6 6 3 1 2 2 2 3 3 3 2 1 1 1 1 2 2 1 2 2 2 3 3 4 5 6 7 7 8 8 9 10 11 12 13 14 15 17
6 6 5 5 5 7 10 10 9 8 8 7 4 5 6 10 11 10 10 11 12 11 9 9 10 9 8 8 7 7 10 11 11 14 13 9 11 14 11 10 12 12 11 11 11 11 9 5 5 5 2 2 1 1 1 1 2 1 1 1 0 0 1 2 2 3 3 3 4 4 5 5 6 7 7 8 8 9 9 10 11 12 13 14 15 15
7 6 6 5 6 7 8 8 8 9 7 5 6 5 5 7 9 9 11 12 11 10 11 11 11 9 9 9 7 7 12 14 14 16 15 9 8 13 13 13 15 15 10 6 7 7 4 3 4 2 2 3 4 4 3 2 2 1 0 1 1 2 2 3 3 4 4 5 5 5 6 7 7 8 8 9 9 10 11 11 11 12 13 13 14 14
7 6 5 5 6 6 6 7 9 8 7 8 9 6 3 4 6 8 9 9 8 11 12 10 8 9 12 13 8 5 8 11 12 13 13 10 8 9 9 10 8 4 5 5 5 4 3 2 0 3 4 5 6 6 4 3 2 1 2 2 3 3 4 4 4 5 5 6 6 6 7 7 8 9 9 10 10 11 11 11 12 12 13 13 14 14
9 7 5 5 6 6 7 8 8 9 10 9 5 5 5 3 3 3 4 5 7 8 9 9 7 7 12 13 9 9 12 10 6 8 14 14 8 5 7 10 9 8 10 6 4 2 0 2 3 5 5 6 7 7 7 5 3 3 4 4 4 5 5 6 6 6 6 7 7 8 8 8 9 10 10 10 11 12 12 12 13 13 13 13 14 14
10 8 6 5 6 6 7 8 7 9 8 2 4 7 7 7 7 5 3 3 5 8 11 10 7 7 9 11 11 11 10 8 4 4 12 14 8 4 3 4 5 5 5 3 3 3 4 5 6 7 7 7 8 9 8 7 5 5 6 6 6 6 6 7 7 7 8 8 8 8 9 9 10 10 11 11 12 12 12 13 13 13 13 14 13 14
9 7 6 6 6 7 7 7 7 7 3 4 6 6 8 9 7 4 2 1 4 9 11 10 10 11 13 14 14 11 6 4 3 4 9 12 9 5 4 3 3 3 2 1 2 4 5 6 6 7 8 10 11 10 9 8 8 8 8 8 8 9 9 9 9 9 9 9 9 10 10 10 11 11 12 13 13 14 15 15 15 14 14 14 14 16
6 5 6 7 8 9 8 8 7 4 2 5 5 5 8 9 6 4 3 1 6 10 10 8 8 10 11 12 11 8 4 4 4 5 8 9 7 6 7 7 6 6 5 5 5 5 6 4 5 8 11 12 11 10 10 11 10 10 10 10 11 11 11 10 10 11 11 11 11 11 11 11 11 12 12 13 13 14 14 15 15 15 14 15 17 20
5 5 6 7 9 9 9 9 7 2 3 6 7 6 6 6 4 2 3 1 5 9 9 9 10 10 10 11 10 7 6 8 8 9 9 8 8 9 10 9 8 8 8 9 9 10 10 9 9 12 14 14 14 14 14 13 13 13 12 12 12 12 12 12 13 13 13 12 12 12 11 12 12 12 13 14 14 15 16 16 16 15 14 16 21 23
4 4 5 6 7 7 6 7 7 3 2 7 9 6 4 2 1 2 4 4 5 8 9 9 10 10 11 12 12 11 11 11 11 13 13 12 12 12 11 11 11 11 12 12 12 13 14 14 14 14 15 15 15 15 15 14 14 14 14 14 14 14 14 15 14 13 13 13 13 13 13 13 13 14 16 16 16 17 17 17 16 15 15 19 23 23
3 3 5 5 5 6 6 7 7 3 2 7 8 5 4 4 3 5 8 9 9 11 12 11 11 12 12 12 13 13 13 13 13 15 15 15 16 16 15 15 14 14 14 15 15 15 16 16 17 16 16 16 15 15 16 16 16 16 16 16 16 16 15 15 15 15 15 14 14 14 14 14 14 15 16 16 15 16 16 15 15 17 18 20 23 22
3 3 5 4 2 3 4 4 2 1 4 5 5 4 4 7 8 8 9 11 11 12 13 13 13 14 13 13 14 14 15 15 16 17 17 17 18 18 18 19 19 18 18 17 18 18 18 19 19 19 19 19 18 18 17 16 16 16 17 17 16 16 16 17 16 16 16 15 15 14 14 14 14 14 14 14 14 15 15 15 17 19 20 21 23 24
2 3 5 4 2 3 5 5 3 4 7 5 7 7 7 9 10 10 11 13 13 14 13 13 15 16 15 14 15 16 16 17 17 18 20 20 20 21 21 22 23 23 22 21 20 20 21 21 21 21 21 21 20 19 18 17 17 18 18 18 18 18 18 18 17 17 17 17 16 15 15 15 15 14 14 15 16 15 14 16 19 20 21 23 24 24
6 11 8 5 4 6 7 8 9 10 10 10 9 8 10 11 12 12 13 14 14 15 15 15 16 18 17 16 17 17 18 19 20 21 22 22 23 23 23 23 24 24 24 23 22 22 23 23 22 22 22 21 20 20 20 19 18 18 19 19 18 18 18 17 18 18 18 18 17 17 17 17 17 17 16 16 16 15 15 18 21 21 22 24 23 22
9 13 8 6 7 7 6 7 9 11 14 16 14 12 12 13 13 13 14 15 15 16 17 17 17 18 18 18 19 20 21 21 22 23 23 23 24 24 24 24 24 24 24 25 24 24 24 23 22 21 20 20 20 21 21 22 20 19 19 19 18 18 18 18 18 19 19 18 18 17 17 17 19 21 20 17 15 13 15 18 20 20 22 22 21 19
6 9 6 7 7 7 8 9 11 14 16 15 13 12 13 13 14 14 15 17 18 18 19 20 20 20 21 21 22 23 24 24 24 25 24 25 25 26 25 26 25 24 24 24 24 24 24 23 23 21 20 19 20 20 20 21 21 20 20 21 20 19 19 19 19 19 19 18 17 17 18 20 22 23 21 18 16 16 16 17 19 20 20 20 20 22
8 7 6 7 7 7 8 9 11 13 13 11 11 12 14 15 16 18 18 19 21 21 22 22 22 22 23 23 23 24 24 24 24 25 25 26 27 27 27 26 26 25 25 25 24 24 23 22 22 21 20 19 20 21 21 21 21 21 20 21 21 20 19 20 19 17 15 15 16 17 20 23 25 25 23 21 20 20 19 19 20 20 19 17 16 16
8 6 5 5 5 5 6 9 11 10 9 11 14 16 17 18 19 20 21 21 21 21 21 21 21 21 21 22 22 22 23 23 23 24 25 26 26 27 27 27 27 27 26 25 24 24 24 23 22 21 21 21 21 20 21 21 20 20 20 20 19 18 18 18 17 16 15 16 18 20 23 25 25 24 23 22 21 21 20 19 17 15 15 15 14 15
6 5 5 5 5 6 9 13 14 12 11 14 18 19 19 20 20 20 20 19 18 17 17 17 18 19 19 19 20 20 22 22 23 23 24 25 25 26 26 27 28 28 27 25 24 24 24 24 23 21 21 22 20 19 19 20 19 20 21 20 18 17 17 17 18 19 20 21 22 23 23 22 21 20 20 18 18 19 19 18 18 18 18 19 21 22
Wind_Direction
218 239 243 246 239 301 349 353 359 340 332 323 312 299 273 259 258 232 145 137 190 280 264 241 249 241 230 239 209 191 200 186 245 237 147 151 159 162 167 164 165 171 175 182 178 174 180 180 181 175 169 166 162 164 162 154 161 168 163 160 153 145 137 123 111 104 109 114 111 118 125 125 125 122 133 141 151 167 179 176 188 196 185 208 207 187
214 251 251 254 260 54 14 355 356 329 320 310 299 298 289 273 260 176 110 117 123 278 278 270 266 248 222 255 273 209 229 186 190 245 208 176 172 171 172 166 163 167 177 187 182 179 190 191 183 180 178 173 168 168 165 161 165 170 170 167 160 153 142 125 125 127 130 130 122 121 114 115 122 116 128 154 165 173 181 169 185 181 139 86 52 98
217 242 253 251 239 82 350 337 337 314 308 299 285 279 276 272 267 109 99 99 119 155 264 268 273 278 243 241 283 237 245 253 198 234 241 216 204 183 171 169 165 166 175 182 183 185 190 190 182 184 187 182 177 172 167 166 168 170 175 175 165 158 150 139 141 144 145 149 143 133 132 141 148 151 162 172 129 112 97 97 102 112 98 79 67 63
243 227 249 254 99 82 298 311 308 301 290 274 272 270 266 265 266 236 111 73 316 284 283 286 288 302 293 243 263 244 220 230 233 241 243 231 237 196 167 171 176 175 180 183 183 186 190 191 186 185 193 191 185 179 172 170 171 172 179 180 170 164 161 155 155 153 156 162 159 158 160 161 167 174 176 139 102 97 82 83 91 103 98 92 92 81
265 265 104 89 67 3 280 287 272 272 269 253 247 255 266 272 276 288 82 87 327 298 268 279 283 280 266 228 238 248 203 199 227 237 244 229 237 222 166 167 177 178 178 181 182 184 189 195 193 189 197 200 194 188 179 176 175 173 181 185 174 171 169 166 166 156 153 161 165 174 172 169 170 138 123 103 90 83 77 78 79 92 95 93 96 96
256 317 81 197 285 266 252 259 250 246 261 257 244 242 257 278 289 298 288 213 245 267 219 226 261 252 242 233 229 236 205 204 228 225 240 236 229 234 160 158 171 178 174 176 179 183 190 196 198 195 198 204 203 197 186 182 178 175 184 187 177 177 177 174 173 157 154 163 165 166 161 159 142 113 115 116 99 97 105 91 79 91 96 97 104 111
193 144 171 282 283 266 257 258 251 247 250 260 297 288 267 271 279 277 274 261 243 271 222 185 246 269 254 256 248 244 215 200 221 220 228 236 222 225 169 157 164 168 169 178 181 187 194 197 204 204 202 208 209 203 193 187 182 178 186 188 182 183 183 181 176 163 165 170 161 153 143 137 127 123 140 149 132 132 131 97 84 88 88 86 89 86
286 178 160 283 274 256 258 257 242 246 252 248 346 313 284 270 269 263 261 261 253 277 272 192 233 269 266 265 258 258 235 193 199 226 225 224 216 210 192 174 171 169 174 186 187 189 196 198 205 208 208 214 217 207 197 194 187 183 189 191 186 188 189 187 179 170 173 175 163 152 142 135 138 151 167 165 150 140 122 101 88 79 79 77 76 79
303 241 178 243 256 251 256 257 240 242 254 238 238 293 286 275 273 271 264 264 258 262 261 230 234 249 250 265 245 207 228 210 189 216 231 227 218 202 198 196 185 176 176 183 183 183 191 195 200 207 208 215 220 210 201 201 194 188 193 193 188 192 194 189 182 175 176 177 167 158 148 146 160 174 172 165 154 134 120 108 103 93 82 80 78 82
239 263 282 265 251 249 248 256 257 252 261 260 262 281 277 266 267 266 259 263 259 247 254 251 248 256 251 257 250 188 208 223 198 202 212 209 202 189 186 166 132 143 158 173 181 181 188 193 197 209 216 217 216 209 205 207 201 195 198 195 190 196 198 191 184 180 180 179 173 163 153 156 176 179 164 164 162 142 132 120 114 108 85 83 83 80
237 212 259 274 266 271 262 266 279 262 265 268 252 262 260 251 253 255 249 256 262 253 251 249 246 253 256 240 252 201 198 199 234 242 196 181 184 112 100 124 142 157 166 185 190 179 185 196 199 214 226 219 211 204 206 210 205 200 203 200 193 198 203 195 185 183 184 182 178 167 157 168 186 175 164 176 171 152 149 133 118 115 97 88 87 88
262 214 213 233 244 266 276 276 278 239 246 260 251 259 268 254 247 250 245 240 248 252 249 261 261 246 245 253 119 104 156 133 80 330 75 78 90 88 97 152 176 180 179 159 137 130 136 178 196 214 220 216 208 200 202 208 204 198 201 201 195 198 206 200 187 185 188 186 182 172 162 175 191 176 173 187 176 164 165 145 132 141 152 117 92 92
264 257 263 249 214 227 263 267 255 231 223 242 248 249 263 265 256 249 249 240 248 271 278 327 317 264 236 262 192 157 181 163 128 117 128 140 120 100 110 145 112 129 152 89 82 84 78 137 197 213 212 211 205 196 197 204 203 196 198 198 191 195 206 204 191 186 190 190 186 178 169 178 189 180 181 192 182 178 179 160 152 162 186 197 105 91
239 234 253 265 216 190 230 259 263 243 205 226 249 246 240 250 259 251 254 254 247 271 264 176 328 276 215 275 243 152 152 159 122 115 133 137 114 113 159 154 131 97 79 74 78 92 112 117 163 194 197 203 199 193 195 200 201 196 198 199 192 194 203 206 197 188 191 192 187 184 177 180 187 183 186 196 194 190 188 181 172 171 191 221 251 278
266 243 225 252 233 178 214 251 274 284 262 242 250 251 234 232 259 263 261 269 270 291 278 174 212 270 209 293 314 103 114 128 122 119 127 130 134 159 162 118 104 78 70 75 85 94 94 91 105 124 142 174 189 194 196 200 205 199 198 201 195 194 199 203 199 191 191 192 188 187 185 185 191 189 187 193 202 198 190 197 196 181 188 217 235 252
261 265 239 230 223 198 230 245 254 266 271 265 259 254 240 219 242 256 268 282 298 309 286 223 241 286 166 229 302 106 129 146 140 138 143 151 148 139 119 96 89 75 71 78 84 88 85 80 83 92 108 131 159 185 190 197 211 209 204 204 198 195 197 200 198 193 192 192 189 189 190 190 194 196 190 187 201 205 188 193 213 201 189 208 230 246
248 267 277 230 209 222 245 260 268 260 268 294 270 261 282 287 256 253 270 275 266 261 260 234 237 235 144 188 209 182 175 157 149 155 153 141 123 114 108 98 94 90 92 96 91 90 87 82 79 79 89 107 126 158 178 191 211 215 214 214 204 195 193 196 195 192 191 192 191 189 190 191 191 199 197 187 197 214 197 191 212 220 204 206 222 241
256 274 288 252 231 235 236 263 291 280 276 282 267 268 347 300 268 258 267 265 256 254 247 234 239 236 218 204 196 192 180 161 168 165 142 128 117 110 102 98 104 109 111 106 96 89 84 83 82 81 81 86 100 139 178 195 214 217 216 223 217 201 193 190 187 187 188 189 192 191 189 190 189 194 199 190 194 214 214 201 206 221 220 214 220 235
269 275 275 255 257 254 231 232 271 264 258 255 266 292 300 271 264 254 255 255 261 266 264 265 261 253 258 242 186 188 183 184 186 158 139 138 126 114 106 103 104 104 101 95 90 87 84 83 84 84 86 84 86 97 142 190 222 223 209 221 228 208 196 190 178 176 181 183 188 192 191 192 191 193 196 194 195 210 222 217 211 218 227 225 225 231
275 270 274 259 267 270 240 213 251 257 246 236 241 261 263 265 268 254 255 256 257 263 266 273 270 263 338 5 164 178 173 243 212 160 148 146 126 117 115 110 103 99 98 93 89 88 86 86 88 91 91 85 92 99 100 127 182 207 196 210 226 205 197 199 179 164 166 171 179 187 190 193 196 197 198 195 197 206 217 220 217 222 231 236 236 234
284 263 273 274 277 277 249 223 253 278 277 253 242 251 259 270 273 262 256 253 262 270 273 272 267 245 56 20 103 140 131 291 274 191 146 133 123 120 115 110 107 102 99 97 96 94 93 93 95 97 97 92 103 115 108 105 110 124 154 176 203 197 192 197 189 172 165 167 175 183 186 191 194 200 207 206 205 210 217 222 226 229 232 239 245 243
295 274 277 274 271 270 258 253 264 277 283 283 275 256 262 270 274 271 255 245 267 282 291 289 279 13 36 313 82 136 157 162 306 315 125 123 118 115 113 111 109 106 104 103 102 99 98 98 98 99 102 101 101 105 105 110 115 116 130 142 149 163 175 181 183 181 176 173 178 188 193 195 197 204 213 215 214 218 227 231 235 238 238 239 245 247
29 300 282 273 268 275 277 278 279 272 269 281 283 267 271 283 285 277 268 271 295 270 238 269 278 30 344 313 30 55 114 115 20 300 116 119 121 120 119 118 114 110 108 106 105 105 105 103 102 102 104 104 102 96 94 97 106 111 117 134 134 136 161 177 183 187 189 185 188 198 204 207 212 220 227 230 223 219 227 232 234 240 242 241 243 246
35 269 262 270 273 278 278 276 272 257 236 249 267 271 273 277 274 272 279 286 285 280 273 269 271 188 255 297 62 78 93 127 183 189 130 121 129 130 128 125 121 117 114 112 110 110 111 109 106 106 106 106 105 106 104 97 96 96 85 87 129 132 154 175 185 193 198 203 207 213 217 220 226 229 233 239 236 230 237 242 240 238 239 242 244 243
335 254 247 263 273 274 264 256 255 247 227 223 255 276 282 283 275 270 288 295 272 274 275 272 280 151 144 315 57 138 165 171 183 169 146 142 142 136 133 130 126 122 119 117 114 112 112 111 108 107 109 110 110 110 110 107 106 105 99 99 112 126 158 172 179 185 190 206 215 221 225 224 226 227 227 233 235 235 241 248 248 246 246 249 249 245
288 280 283 274 269 274 270 266 289 302 290 282 276 274 282 295 288 274 281 286 267 272 270 263 276 164 153 187 236 241 225 196 188 176 163 157 150 144 137 133 134 131 126 120 117 115 110 106 104 104 105 109 111 111 110 110 110 110 109 110 111 115 126 131 124 128 138 171 199 215 225 224 228 234 232 234 237 235 237 243 247 250 253 255 253 250
289 275 275 271 266 274 281 292 310 318 309 296 287 277 270 280 290 284 264 268 275 294 283 269 287 292 244 237 190 235 272 248 234 219 182 158 151 147 139 139 142 138 134 130 125 122 119 115 112 109 107 107 110 111 111 110 109 109 110 110 114 118 114 109 108 117 128 138 158 184 222 229 234 242 243 245 246 242 237 238 244 251 256 256 253 251
276 260 259 263 265 269 275 284 293 297 295 290 287 284 275 274 284 277 252 264 275 282 276 283 314 318 312 324 354 308 271 267 267 239 168 153 159 156 159 172 164 154 148 142 138 137 132 128 125 122 122 120 117 117 115 115 115 113 112 110 109 110 114 116 113 107 116 127 131 142 156 255 262 259 254 250 246 244 239 239 247 257 260 255 249 248
251 259 258 261 263 268 272 277 283 284 284 285 286 289 286 285 285 273 262 272 278 278 277 289 301 296 297 321 332 317 308 299 288 277 208 207 204 183 193 214 204 190 183 167 154 147 137 134 136 132 131 131 130 128 123 120 120 116 113 109 103 96 95 105 110 108 111 102 107 156 159 302 282 278 279 271 261 258 256 257 263 266 263 258 253 248
235 261 274 278 280 282 281 281 283 283 279 278 279 281 280 278 278 274 271 272 272 275 281 285 284 281 285 298 302 305 309 303 295 294 268 248 240 221 214 218 218 221 219 201 179 166 155 148 145 138 137 137 135 134 129 121 118 118 113 106 100 95 84 74 84 106 117 111 127 226 228 235 256 267 275 272 267 267 272 279 282 281 278 272 263 255
170 283 310 309 292 285 285 285 284 281 279 280 284 286 286 282 279 278 277 274 270 274 280 284 282 281 293 300 295 293 288 277 271 269 261 254 246 237 231 229 231 242 247 215 182 178 173 164 169 163 147 142 139 136 135 131 125 123 120 111 102 98 102 148 265 27 58 138 255 272 272 255 252 258 257 254 252 254 262 271 276 280 284 283 276 269
151 268 294 296 279 277 283 282 281 285 286 283 285 292 291 284 280 281 281 277 274 276 281 286 287 290 301 299 293 288 278 270 273 272 267 276 273 252 236 235 240 241 244 219 185 190 192 184 187 175 142 146 158 146 135 138 141 133 122 113 106 104 89 294 296 54 355 267 263 272 277 270 261 254 251 253 252 251 255 257 259 264 269 272 274 276
220 255 273 278 279 281 285 286 292 303 294 277 278 289 282 273 272 280 279 273 271 271 274 278 276 284 299 298 291 296 297 298 306 302 305 341 333 303 261 246 250 246 242 236 217 210 215 210 181 156 157 206 171 142 123 128 142 148 132 97 85 90 345 344 353 326 282 269 267 265 263 263 262 263 262 260 257 255 256 257 258 259 260 261 266 273
246 254 261 270 275 278 286 294 296 286 270 267 298 326 306 285 281 287 292 290 285 278 273 276 281 297 320 318 312 334 339 325 312 307 307 317 323 314 298 277 268 258 253 247 225 213 217 203 140 124 165 249 280 310 299 154 157 169 126 89 67 293 304 308 304 303 294 286 286 280 271 265 262 264 264 264 264 260 258 258 259 259 260 260 261 266
253 258 259 259 262 271 284 287 273 262 261 275 286 298 320 310 299 301 302 302 309 310 298 284 285 303 314 307 315 354 352 339 330 324 320 316 305 300 295 285 269 251 242 230 202 192 177 132 104 81 262 263 284 294 281 221 191 189 214 253 265 286 300 298 291 292 285 281 285 285 282 279 273 269 267 265 265 264 264 264 263 262 263 262 261 261
251 254 255 257 262 268 271 261 256 267 287 290 288 305 354 321 293 288 284 291 322 336 325 302 293 316 314 298 298 337 342 333 328 324 325 330 331 330 339 338 309 236 162 147 162 145 91 92 320 290 269 275 287 285 273 260 255 251 254 270 290 294 295 295 289 288 285 281 282 284 283 281 278 278 276 272 270 272 273 270 267 266 267 267 265 263
245 248 245 247 253 258 262 261 263 278 284 284 304 15 39 16 337 321 298 311 332 344 342 320 298 309 313 306 320 359 357 343 318 326 344 349 347 356 19 27 42 87 109 130 170 170 219 257 263 266 261 273 283 283 287 288 283 278 280 287 293 291 294 297 291 288 286 283 282 282 281 280 279 279 277 275 275 276 275 274 272 270 269 268 269 269
233 235 230 234 244 249 261 267 269 273 277 292 69 56 43 37 33 26 354 332 356 22 22 3 342 336 330 333 352 4 356 338 301 337 357 357 360 360 357 25 49 76 105 140 189 216 243 249 249 254 264 280 283 282 284 282 278 286 291 290 290 290 294 293 288 286 284 282 281 278 275 275 276 275 273 273 272 272 273 274 274 273 271 270 270 270
232 231 232 243 253 252 256 262 261 264 279 68 74 58 43 34 20 350 293 284 29 32 27 19 15 11 5 2 1 354 332 314 335 6 357 354 7 12 338 328 336 317 280 251 254 261 267 261 253 262 276 282 280 277 276 277 281 287 285 282 283 285 287 286 284 285 284 281 279 276 274 274 272 269 267 267 266 266 265 265 265 267 270 269 265 261
249 250 243 243 246 247 249 252 255 261 17 39 33 44 43 23 353 301 250 293 13 9 4 2 359 355 353 352 349 340 327 329 340 347 342 339 343 337 321 313 310 301 284 267 273 300 319 311 282 279 280 277 274 275 277 278 277 277 277 277 277 276 278 280 280 280 281 280 279 276 274 274 273 272 270 268 266 266 265 266 265 262 262 261 257 253
251 260 258 255 251 248 248 253 256 246 48 9 357 16 27 7 339 282 245 278 355 352 352 351 340 332 332 329 321 314 324 333 326 316 314 309 301 306 314 310 300 294 283 274 281 302 312 306 291 283 281 279 277 276 276 275 273 272 272 272 270 269 271 274 277 279 280 278 277 275 273 273 272 269 265 262 262 262 262 263 262 259 258 259 257 253
250 262 270 267 262 259 256 261 261 244 4 341 342 358 358 325 298 334 316 305 323 336 340 337 329 324 323 320 318 318 317 314 309 305 304 304 303 303 304 302 297 291 284 282 285 290 290 286 281 275 272 272 272 273 275 273 272 272 271 269 268 269 271 273 275 276 276 274 273 273 273 272 268 264 263 265 267 268 267 267 263 257 252 252 252 250
285 272 263 257 263 269 263 264 266 257 329 337 343 4 12 355 349 341 328 319 326 333 329 321 316 317 317 315 313 312 309 305 303 303 301 298 295 294 295 296 294 287 283 282 282 281 281 280 279 278 280 279 276 276 276 273 271 271 270 270 271 272 273 274 274 274 274 275 275 274 272 271 270 271 273 275 275 275 276 277 267 253 246 245 246 244
301 276 272 277 307 294 267 268 287 195 235 292 332 353 352 346 340 331 322 319 320 317 311 311 312 308 305 304 301 298 298 299 299 300 300 297 293 290 290 290 289 285 281 278 278 280 281 279 279 282 283 280 278 276 272 270 273 274 273 274 274 274 274 275 276 277 277 277 277 276 275 276 275 276 277 275 272 271 272 271 262 252 247 245 244 243
338 352 314 297 308 288 275 286 303 254 254 300 359 359 338 331 327 321 311 305 307 311 315 324 328 323 312 305 303 300 297 294 293 293 293 294 293 289 286 285 287 289 285 279 277 279 279 278 279 282 282 279 275 273 271 271 273 275 276 277 276 275 276 276 276 277 277 277 277 276 277 278 276 275 275 271 267 263 260 262 260 253 247 246 244 243
33 19 347 307 302 303 293 296 302 299 310 337 350 331 314 312 313 316 317 313 313 319 323 325 325 324 317 308 303 300 295 293 292 289 288 289 288 287 286 283 283 285 286 284 282 282 281 279 278 280 283 284 282 279 280 279 276 274 275 277 278 276 275 275 276 277 277 276 275 277 280 281 278 276 275 273 270 263 254 256 256 248 244 245 244 242
39 28 354 297 298 310 305 303 314 329 343 346 337 322 314 309 311 321 329 326 319 316 314 312 309 308 305 300 297 295 293 292 291 289 289 289 287 286 285 283 280 281 282 281 280 279 279 278 276 275 278 282 283 282 281 281 280 278 276 276 277 277 275 275 275 275 274 274 274 276 278 278 277 273 270 268 267 260 254 252 250 245 243 243 241 242
21 24 346 296 292 297 295 300 321 343 350 342 330 325 320 316 317 320 319 316 311 305 301 300 299 297 295 292 291 290 289 288 288 288 287 287 287 286 285 283 282 282 281 280 279 278 277 276 276 275 275 276 279 279 279 279 278 276 274 274 275 275 276 276 272 269 269 271 273 274 274 271 270 269 267 264 260 256 252 246 242 244 245 244 247 251
325 333 322 316 308 295 296 311 330 342 340 326 315 316 317 318 318 314 310 308 304 301 298 296 295 297 298 299 299 298 295 293 292 292 289 286 286 287 287 285 285 283 280 279 280 282 282 281 281 281 281 280 280 280 279 275 273 273 272 273 274 274 272 270 268 268 272 274 275 273 269 265 263 264 265 263 258 257 253 243 238 241 240 236 238 236
316 314 323 330 311 290 305 324 328 325 316 313 315 314 312 313 310 306 305 305 302 302 302 300 298 298 300 301 300 298 296 294 292 291 290 286 284 286 287 289 289 287 285 282 281 282 284 283 283 283 281 278 277 277 275 274 275 275 273 270 271 269 264 262 264 271 276 275 270 264 261 263 267 269 269 264 258 253 247 233 221 215 208 195 181 170
318 324 329 322 307 302 309 314 316 313 306 306 308 306 306 308 305 301 302 304 306 309 308 305 303 301 299 297 295 293 292 291 290 290 289 286 285 286 286 286 287 287 288 287 285 284 282 279 276 275 274 274 274 275 277 279 278 274 271 270 268 261 256 258 265 271 273 272 270 268 270 274 273 268 263 255 243 233 219 197 178 170 169 165 158 156
Height
1459 1461 1461 1458 1454 1451 1449 1448 1450 1450 1449 1451 1450 1444 1439 1441 1440 1434 1434 1435 1436 1443 1442 1439 1441 1438 1437 1436 1433 1437 1440 1443 1448 1449 1452 1458 1462 1465 1467 1469 1472 1475 1479 1481 1483 1485 1488 1490 1491 1491 1490 1490 1491 1492 1492 1493 1494 1495 1496 1497 1499 1501 1502 1504 1506 1508 1510 1511 1513 1514 1516 1517 1518 1518 1519 1519 1520 1520 1520 1520 1521 1521 1521 1522 1522 1523
1459 1463 1459 1452 1449 1449 1450 1450 1451 1452 1452 1453 1452 1448 1444 1442 1439 1435 1437 1437 1438 1446 1446 1441 1442 1439 1437 1437 1434 1437 1440 1441 1446 1450 1451 1455 1459 1462 1464 1467 1471 1474 1478 1480 1480 1483 1488 1491 1491 1491 1491 1491 1491 1492 1492 1493 1494 1495 1496 1497 1499 1500 1502 1503 1505 1507 1509 1511 1512 1514 1515 1516 1517 1518 1518 1518 1519 1519 1519 1520 1520 1520 1521 1522 1522 1522
1461 1460 1454 1447 1446 1448 1450 1451 1453 1454 1454 1455 1453 1451 1451 1445 1438 1439 1441 1440 1441 1448 1450 1445 1445 1442 1435 1437 1438 1439 1441 1441 1445 1449 1450 1452 1454 1457 1461 1464 1468 1471 1474 1477 1479 1483 1487 1490 1490 1490 1491 1492 1493 1492 1493 1493 1493 1494 1495 1496 1498 1500 1501 1503 1505 1506 1508 1510 1511 1513 1515 1515 1516 1517 1518 1518 1518 1519 1519 1519 1520 1520 1521 1522 1522 1523
1460 1454 1448 1445 1446 1448 1451 1452 1454 1456 1455 1456 1454 1454 1453 1445 1442 1445 1445 1444 1443 1446 1450 1448 1448 1447 1439 1439 1441 1440 1441 1443 1446 1449 1449 1450 1452 1453 1458 1461 1464 1468 1471 1474 1478 1482 1485 1487 1487 1488 1490 1492 1493 1493 1492 1492 1493 1494 1494 1496 1497 1499 1501 1502 1504 1505 1507 1508 1510 1512 1513 1514 1515 1516 1517 1518 1518 1519 1519 1519 1519 1520 1521 1521 1522 1523
1454 1447 1445 1446 1448 1450 1453 1454 1455 1458 1458 1454 1452 1454 1451 1444 1442 1444 1445 1448 1449 1448 1450 1452 1457 1454 1445 1444 1445 1440 1440 1443 1446 1447 1447 1449 1451 1453 1456 1460 1463 1466 1469 1473 1477 1481 1483 1484 1485 1487 1489 1492 1493 1493 1492 1491 1492 1493 1493 1495 1497 1498 1500 1502 1503 1505 1506 1508 1509 1510 1512 1513 1514 1516 1517 1518 1518 1519 1519 1519 1519 1520 1520 1521 1521 1522
1449 1446 1445 1448 1449 1449 1454 1455 1454 1457 1459 1455 1450 1448 1448 1446 1444 1445 1446 1449 1457 1459 1450 1452 1468 1463 1445 1444 1445 1440 1440 1443 1444 1445 1447 1449 1449 1452 1456 1462 1466 1467 1470 1473 1475 1478 1481 1482 1484 1485 1487 1491 1493 1493 1491 1491 1491 1492 1493 1494 1496 1498 1499 1501 1502 1504 1506 1507 1509 1510 1511 1513 1514 1515 1516 1518 1518 1519 1519 1519 1519 1519 1520 1520 1521 1521
1443 1446 1447 1450 1451 1451 1454 1454 1452 1453 1457 1458 1451 1446 1445 1446 1447 1449 1448 1451 1460 1462 1447 1448 1467 1468 1451 1444 1441 1438 1439 1442 1444 1445 1446 1448 1450 1451 1456 1462 1466 1469 1471 1473 1474 1476 1478 1480 1482 1483 1485 1490 1494 1493 1491 1490 1491 1492 1492 1493 1496 1497 1498 1500 1502 1504 1505 1506 1508 1510 1511 1512 1514 1515 1516 1517 1518 1518 1519 1519 1519 1519 1519 1520 1520 1521
1442 1446 1449 1451 1452 1453 1455 1453 1450 1449 1454 1457 1452 1449 1448 1446 1449 1449 1449 1452 1454 1454 1450 1447 1456 1466 1462 1448 1439 1437 1440 1442 1445 1447 1446 1447 1448 1450 1454 1459 1462 1466 1469 1470 1472 1474 1476 1478 1481 1482 1484 1489 1494 1494 1490 1489 1490 1491 1491 1493 1495 1496 1497 1499 1501 1503 1505 1506 1507 1509 1511 1512 1514 1514 1515 1516 1517 1518 1518 1519 1519 1519 1519 1520 1520 1521
1445 1447 1449 1452 1454 1455 1453 1449 1445 1446 1450 1452 1448 1449 1449 1448 1449 1448 1449 1452 1450 1455 1462 1453 1450 1465 1466 1448 1437 1439 1442 1445 1446 1448 1447 1446 1446 1448 1451 1455 1458 1462 1465 1468 1471 1473 1474 1476 1479 1481 1483 1487 1493 1493 1490 1488 1489 1490 1491 1492 1494 1495 1497 1498 1500 1502 1504 1505 1507 1508 1510 1512 1513 1514 1515 1516 1517 1518 1518 1519 1519 1520 1520 1520 1520 1521
1445 1447 1447 1449 1452 1452 1449 1444 1441 1443 1448 1447 1446 1449 1449 1448 1448 1448 1451 1452 1451 1461 1468 1457 1451 1464 1465 1448 1441 1444 1445 1446 1446 1446 1446 1445 1446 1449 1451 1454 1457 1461 1465 1468 1470 1472 1474 1476 1478 1479 1481 1486 1491 1491 1489 1487 1487 1489 1489 1491 1493 1494 1496 1497 1500 1501 1503 1505 1506 1508 1510 1512 1512 1513 1514 1515 1516 1517 1518 1519 1519 1520 1520 1520 1521 1521
1442 1445 1447 1448 1450 1447 1445 1442 1439 1443 1446 1445 1448 1450 1449 1449 1446 1448 1450 1450 1460 1470 1466 1455 1449 1458 1465 1453 1445 1449 1446 1443 1445 1445 1446 1447 1449 1451 1454 1457 1459 1462 1465 1467 1469 1471 1474 1475 1476 1476 1478 1483 1487 1487 1486 1486 1486 1487 1488 1490 1492 1493 1495 1496 1498 1500 1502 1504 1505 1507 1509 1511 1512 1512 1514 1515 1516 1517 1518 1518 1519 1520 1520 1521 1521 1522
1442 1445 1445 1445 1447 1446 1445 1444 1442 1442 1444 1447 1449 1450 1454 1455 1452 1456 1455 1455 1472 1475 1460 1450 1446 1453 1464 1457 1448 1449 1443 1441 1448 1449 1448 1452 1453 1455 1457 1459 1460 1462 1464 1466 1469 1471 1473 1475 1475 1476 1478 1482 1484 1484 1484 1485 1486 1487 1487 1488 1490 1491 1493 1495 1497 1499 1501 1503 1504 1506 1508 1510 1511 1512 1513 1514 1515 1517 1517 1518 1519 1520 1520 1521 1521 1522
1447 1446 1442 1441 1443 1444 1447 1448 1445 1442 1443 1448 1449 1453 1466 1471 1471 1474 1471 1469 1477 1470 1455 1451 1452 1455 1458 1452 1446 1446 1442 1442 1447 1449 1450 1454 1456 1457 1459 1460 1462 1464 1466 1467 1469 1472 1474 1476 1476 1477 1479 1481 1481 1482 1483 1484 1485 1487 1488 1488 1489 1489 1491 1493 1495 1497 1499 1501 1503 1505 1507 1509 1511 1512 1513 1513 1515 1516 1517 1518 1519 1520 1521 1521 1521 1522
1453 1448 1443 1443 1442 1441 1446 1450 1449 1445 1443 1448 1449 1455 1470 1479 1486 1488 1482 1480 1479 1469 1456 1453 1457 1460 1456 1449 1442 1440 1442 1443 1444 1449 1452 1454 1457 1459 1459 1461 1463 1465 1467 1469 1471 1474 1476 1477 1477 1477 1478 1479 1479 1480 1482 1483 1484 1486 1487 1488 1489 1489 1489 1491 1494 1496 1498 1500 1502 1504 1506 1508 1510 1511 1512 1513 1514 1516 1517 1518 1519 1520 1521 1521 1521 1521
1462 1459 1448 1445 1443 1441 1443 1446 1447 1443 1442 1445 1443 1449 1462 1469 1480 1487 1483 1481 1478 1469 1460 1457 1461 1463 1461 1457 1445 1439 1443 1444 1446 1451 1454 1456 1458 1459 1460 1461 1465 1467 1469 1471 1473 1475 1476 1476 1476 1475 1476 1477 1479 1480 1482 1482 1484 1485 1486 1487 1488 1489 1488 1489 1491 1493 1496 1498 1501 1502 1504 1507 1509 1510 1512 1513 1514 1515 1517 1518 1519 1520 1521 1521 1521 1521
1461 1460 1444 1439 1440 1440 1443 1442 1439 1442 1446 1444 1439 1446 1455 1455 1461 1470 1471 1468 1469 1472 1468 1462 1462 1456 1455 1455 1446 1443 1448 1446 1449 1452 1454 1457 1458 1459 1462 1463 1466 1469 1471 1473 1474 1475 1475 1475 1475 1475 1475 1477 1478 1480 1481 1482 1483 1484 1485 1486 1487 1488 1488 1488 1489 1491 1494 1496 1499 1501 1503 1506 1508 1510 1511 1513 1514 1515 1517 1518 1519 1520 1521 1521 1521 1521
1460 1456 1439 1436 1439 1439 1443 1440 1435 1442 1449 1447 1446 1450 1447 1443 1449 1461 1467 1460 1464 1477 1472 1461 1460 1454 1454 1457 1448 1446 1449 1447 1451 1453 1453 1457 1459 1461 1464 1465 1468 1471 1473 1476 1476 1475 1475 1475 1475 1475 1476 1477 1478 1480 1480 1482 1483 1483 1484 1485 1485 1486 1487 1488 1488 1489 1492 1495 1498 1500 1502 1505 1507 1509 1511 1513 1514 1515 1517 1519 1519 1520 1521 1521 1522 1521
1456 1457 1442 1438 1443 1439 1438 1440 1438 1439 1444 1447 1450 1447 1441 1444 1447 1454 1467 1469 1471 1480 1469 1457 1460 1457 1458 1462 1451 1446 1449 1450 1451 1452 1454 1458 1461 1464 1466 1468 1470 1472 1475 1476 1475 1475 1475 1475 1476 1476 1477 1478 1478 1480 1480 1481 1482 1483 1484 1484 1484 1485 1487 1489 1489 1489 1490 1493 1496 1499 1501 1505 1507 1509 1511 1513 1515 1516 1517 1518 1519 1519 1520 1521 1522 1521
1451 1460 1450 1438 1442 1439 1433 1441 1446 1442 1440 1443 1445 1440 1443 1457 1459 1457 1467 1474 1478 1481 1471 1461 1458 1453 1454 1455 1448 1447 1450 1451 1451 1452 1455 1459 1462 1466 1468 1470 1472 1472 1474 1474 1474 1475 1475 1475 1476 1476 1477 1478 1479 1480 1481 1482 1482 1482 1483 1484 1484 1486 1490 1492 1492 1491 1491 1493 1496 1498 1501 1504 1507 1509 1511 1513 1514 1516 1516 1518 1519 1520 1520 1521 1522 1522
1449 1461 1459 1442 1438 1437 1434 1442 1451 1447 1440 1438 1440 1439 1441 1450 1455 1457 1459 1464 1472 1477 1475 1472 1465 1458 1456 1452 1448 1449 1450 1452 1453 1452 1456 1459 1462 1467 1469 1471 1472 1472 1473 1474 1474 1475 1475 1476 1477 1477 1478 1479 1479 1481 1481 1482 1483 1483 1484 1485 1485 1487 1491 1494 1494 1493 1493 1494 1496 1498 1500 1503 1506 1508 1511 1512 1514 1515 1516 1517 1519 1520 1521 1521 1522 1522
1448 1458 1463 1450 1440 1441 1442 1444 1447 1447 1444 1442 1443 1445 1447 1447 1449 1453 1452 1451 1460 1468 1472 1475 1471 1464 1460 1454 1451 1452 1454 1458 1458 1454 1457 1461 1464 1468 1470 1472 1473 1473 1474 1474 1475 1476 1476 1477 1478 1478 1479 1479 1480 1482 1482 1483 1483 1484 1485 1486 1486 1487 1490 1493 1494 1494 1494 1495 1496 1498 1499 1502 1505 1507 1510 1511 1513 1514 1515 1517 1518 1520 1521 1521 1522 1522
1452 1457 1463 1458 1450 1449 1445 1439 1437 1441 1443 1444 1446 1448 1453 1454 1454 1462 1464 1454 1454 1463 1471 1476 1473 1466 1460 1453 1451 1452 1454 1459 1459 1457 1459 1463 1467 1470 1472 1474 1475 1475 1475 1476 1476 1477 1477 1478 1479 1480 1480 1481 1482 1483 1483 1484 1484 1485 1486 1486 1487 1488 1489 1491 1492 1493 1494 1495 1497 1498 1498 1500 1503 1506 1508 1510 1512 1514 1515 1516 1517 1519 1520 1521 1521 1521
1455 1458 1462 1461 1454 1449 1443 1437 1436 1438 1440 1443 1445 1445 1449 1451 1452 1463 1470 1462 1458 1462 1465 1470 1473 1469 1461 1454 1452 1453 1453 1456 1459 1460 1462 1465 1469 1472 1473 1475 1476 1476 1477 1477 1478 1478 1479 1479 1480 1481 1481 1482 1483 1484 1484 1486 1486 1487 1487 1487 1488 1489 1489 1489 1490 1492 1493 1493 1497 1499 1499 1499 1501 1504 1507 1510 1511 1511 1513 1514 1515 1517 1518 1519 1520 1520
1459 1460 1464 1463 1454 1446 1442 1437 1434 1435 1439 1446 1447 1444 1446 1448 1448 1453 1456 1456 1461 1463 1462 1467 1472 1470 1463 1456 1453 1455 1455 1457 1461 1463 1465 1468 1471 1473 1474 1476 1477 1478 1478 1479 1479 1480 1480 1481 1481 1482 1483 1484 1484 1485 1486 1486 1487 1488 1488 1489 1490 1489 1490 1490 1490 1490 1491 1492 1496 1499 1500 1500 1500 1501 1505 1508 1509 1509 1511 1513 1514 1514 1515 1516 1518 1518
1463 1461 1463 1467 1465 1458 1452 1446 1441 1437 1439 1445 1447 1446 1446 1446 1446 1449 1450 1454 1462 1464 1463 1469 1471 1466 1461 1456 1454 1455 1456 1457 1459 1461 1465 1469 1471 1473 1475 1477 1478 1479 1479 1479 1480 1481 1481 1482 1483 1483 1484 1485 1485 1486 1487 1487 1488 1489 1489 1490 1491 1491 1492 1492 1491 1490 1491 1492 1495 1498 1499 1499 1498 1499 1501 1504 1505 1505 1507 1512 1513 1512 1512 1513 1515 1516
1463 1462 1463 1469 1474 1471 1464 1457 1452 1448 1445 1446 1447 1447 1448 1448 1449 1451 1456 1464 1469 1464 1461 1466 1467 1462 1459 1456 1455 1456 1455 1456 1458 1459 1463 1467 1470 1473 1475 1477 1478 1479 1480 1481 1481 1482 1483 1483 1484 1485 1485 1486 1487 1487 1488 1489 1489 1490 1490 1491 1492 1492 1493 1493 1492 1491 1491 1493 1495 1496 1497 1497 1497 1498 1499 1501 1502 1502 1504 1508 1510 1509 1510 1511 1511 1512
1463 1464 1464 1467 1468 1467 1462 1454 1449 1450 1452 1453 1451 1448 1447 1449 1449 1451 1459 1467 1468 1465 1464 1462 1460 1461 1459 1455 1456 1460 1459 1459 1459 1460 1463 1466 1470 1473 1475 1477 1478 1479 1480 1481 1482 1483 1484 1484 1485 1486 1486 1487 1488 1488 1489 1490 1490 1491 1491 1492 1492 1493 1493 1493 1493 1493 1493 1494 1495 1495 1496 1496 1496 1497 1498 1499 1500 1501 1502 1504 1506 1506 1508 1510 1510 1510
1466 1467 1465 1464 1464 1460 1457 1453 1450 1451 1454 1454 1453 1451 1448 1447 1448 1453 1461 1463 1461 1467 1470 1461 1458 1465 1464 1457 1458 1460 1460 1461 1461 1462 1465 1468 1470 1473 1475 1477 1478 1479 1480 1480 1482 1483 1484 1485 1486 1486 1487 1487 1488 1489 1489 1490 1491 1491 1492 1492 1492 1492 1492 1493 1493 1494 1495 1495 1495 1495 1495 1496 1496 1496 1497 1498 1499 1500 1501 1502 1503 1503 1505 1507 1508 1508
1466 1469 1465 1463 1463 1458 1455 1455 1452 1452 1453 1453 1453 1454 1451 1450 1451 1455 1457 1457 1459 1465 1466 1460 1461 1466 1463 1460 1461 1461 1460 1462 1462 1463 1466 1469 1470 1472 1475 1476 1477 1478 1479 1480 1482 1483 1484 1486 1486 1487 1487 1487 1488 1489 1489 1490 1490 1491 1491 1492 1492 1492 1492 1492 1493 1494 1495 1495 1495 1495 1495 1495 1495 1495 1496 1497 1498 1499 1500 1500 1500 1501 1502 1503 1504 1504
1465 1468 1464 1463 1464 1460 1458 1456 1454 1454 1454 1453 1454 1454 1453 1452 1453 1454 1454 1455 1458 1461 1459 1459 1462 1462 1459 1460 1462 1462 1463 1463 1464 1465 1466 1467 1469 1471 1473 1475 1476 1477 1477 1478 1480 1482 1484 1486 1487 1488 1488 1488 1488 1489 1489 1490 1490 1490 1491 1491 1491 1492 1492 1492 1493 1493 1494 1494 1495 1495 1495 1496 1496 1496 1496 1496 1497 1497 1498 1498 1498 1499 1500 1501 1501 1501
1467 1468 1465 1466 1470 1467 1462 1458 1457 1456 1456 1456 1456 1456 1454 1455 1455 1454 1455 1455 1458 1461 1460 1460 1463 1461 1459 1459 1460 1462 1465 1464 1465 1466 1465 1467 1468 1469 1471 1473 1474 1476 1476 1477 1479 1482 1483 1486 1487 1488 1488 1488 1489 1489 1489 1489 1490 1490 1490 1491 1491 1491 1492 1492 1492 1492 1493 1493 1494 1494 1495 1495 1495 1496 1496 1496 1496 1497 1497 1498 1498 1498 1499 1499 1499 1499
1468 1470 1467 1470 1474 1471 1464 1461 1460 1458 1458 1460 1461 1461 1461 1461 1459 1458 1457 1457 1459 1462 1463 1464 1466 1464 1461 1460 1461 1463 1463 1462 1463 1463 1464 1466 1467 1467 1469 1471 1473 1474 1476 1477 1479 1481 1483 1485 1486 1487 1488 1489 1489 1489 1489 1489 1490 1490 1490 1490 1491 1491 1491 1491 1491 1492 1492 1492 1493 1493 1494 1494 1495 1495 1496 1496 1496 1496 1496 1497 1497 1498 1498 1498 1498 1497
1467 1470 1470 1473 1477 1473 1465 1463 1462 1464 1469 1468 1462 1460 1460 1460 1458 1458 1458 1457 1457 1459 1462 1465 1465 1462 1460 1461 1462 1463 1463 1462 1463 1463 1464 1466 1467 1466 1467 1469 1470 1472 1474 1476 1478 1481 1482 1484 1485 1486 1488 1489 1489 1489 1489 1489 1489 1489 1489 1489 1490 1490 1491 1491 1491 1491 1491 1492 1492 1492 1493 1493 1494 1494 1495 1495 1495 1495 1495 1495 1496 1496 1496 1496 1496 1496
1465 1468 1470 1473 1478 1476 1469 1465 1467 1473 1477 1469 1457 1454 1457 1457 1458 1460 1461 1459 1457 1457 1458 1460 1459 1459 1462 1464 1464 1466 1466 1465 1465 1466 1466 1467 1469 1469 1468 1469 1470 1471 1473 1475 1477 1480 1482 1483 1484 1485 1487 1488 1489 1489 1489 1489 1489 1489 1489 1490 1490 1490 1490 1490 1490 1491 1491 1491 1491 1491 1492 1492 1492 1493 1493 1494 1494 1494 1494 1494 1494 1494 1494 1494 1494 1494
1463 1467 1469 1471 1476 1476 1471 1471 1477 1479 1470 1460 1453 1453 1456 1457 1459 1462 1463 1461 1459 1459 1459 1459 1460 1461 1464 1465 1466 1468 1469 1468 1468 1469 1468 1468 1470 1470 1470 1470 1470 1471 1472 1475 1477 1480 1481 1482 1483 1485 1487 1488 1489 1489 1489 1489 1489 1489 1489 1489 1489 1489 1489 1490 1490 1490 1490 1490 1490 1490 1491 1491 1491 1491 1492 1492 1492 1492 1492 1492 1492 1492 1492 1492 1492 1492
1462 1466 1469 1471 1473 1475 1474 1476 1479 1472 1459 1453 1454 1455 1457 1460 1461 1464 1466 1464 1462 1464 1463 1462 1462 1464 1466 1465 1466 1468 1469 1470 1470 1471 1471 1471 1471 1472 1472 1472 1470 1469 1471 1475 1478 1480 1481 1482 1484 1486 1487 1488 1489 1489 1489 1489 1488 1488 1488 1488 1488 1489 1489 1489 1489 1489 1489 1489 1489 1489 1490 1490 1490 1490 1490 1490 1490 1490 1490 1490 1490 1490 1490 1490 1490 1490
1459 1463 1468 1472 1473 1474 1475 1473 1470 1465 1460 1459 1462 1462 1464 1466 1465 1467 1471 1469 1466 1466 1468 1466 1466 1468 1469 1467 1466 1469 1471 1471 1472 1473 1473 1473 1473 1474 1475 1475 1473 1472 1474 1477 1480 1482 1483 1484 1485 1486 1487 1488 1488 1488 1488 1488 1487 1487 1487 1487 1487 1487 1488 1488 1488 1488 1488 1488 1488 1488 1488 1488 1489 1489 1489 1489 1489 1489 1488 1488 1488 1488 1488 1488 1488 1488
1457 1460 1466 1471 1471 1470 1473 1473 1471 1470 1469 1468 1469 1468 1467 1468 1468 1469 1473 1472 1469 1469 1471 1471 1470 1470 1471 1470 1470 1471 1473 1474 1475 1476 1476 1476 1476 1477 1477 1477 1476 1476 1477 1479 1481 1482 1483 1484 1485 1486 1487 1487 1487 1487 1487 1487 1486 1485 1485 1486 1485 1486 1486 1486 1486 1486 1487 1487 1487 1487 1487 1487 1487 1487 1487 1487 1487 1487 1487 1487 1486 1486 1486 1486 1486 1486
1455 1458 1461 1467 1469 1469 1473 1476 1476 1474 1472 1471 1471 1470 1468 1470 1470 1470 1473 1475 1473 1473 1474 1473 1474 1475 1475 1475 1474 1474 1475 1477 1478 1479 1480 1480 1479 1479 1479 1479 1479 1479 1479 1480 1481 1482 1483 1483 1484 1485 1485 1486 1486 1486 1486 1485 1485 1484 1484 1484 1484 1484 1484 1484 1485 1485 1485 1485 1485 1485 1485 1485 1485 1485 1485 1484 1484 1484 1484 1484 1484 1484 1484 1485 1485 1483
1459 1460 1462 1466 1470 1470 1472 1475 1473 1472 1474 1475 1472 1471 1472 1472 1471 1473 1480 1481 1477 1477 1477 1476 1477 1478 1478 1478 1479 1478 1478 1480 1480 1481 1482 1481 1481 1481 1481 1480 1480 1480 1480 1481 1481 1481 1481 1482 1483 1484 1484 1485 1485 1485 1485 1484 1483 1483 1482 1482 1482 1482 1482 1483 1483 1483 1483 1483 1483 1483 1483 1482 1482 1482 1482 1482 1482 1482 1482 1482 1482 1482 1483 1482 1481 1480
1465 1465 1465 1466 1467 1467 1470 1474 1471 1472 1479 1480 1475 1474 1475 1474 1474 1479 1483 1483 1481 1480 1480 1479 1480 1480 1480 1480 1480 1480 1480 1481 1482 1482 1482 1482 1482 1482 1481 1481 1481 1481 1481 1481 1480 1480 1481 1482 1483 1483 1483 1483 1483 1483 1483 1482 1481 1481 1480 1480 1480 1480 1480 1481 1480 1481 1481 1481 1480 1480 1480 1480 1480 1480 1480 1480 1479 1479 1479 1479 1479 1480 1480 1480 1477 1477
1469 1471 1471 1470 1470 1468 1471 1475 1472 1474 1482 1483 1478 1476 1476 1477 1482 1485 1484 1483 1482 1481 1481 1481 1482 1482 1482 1482 1481 1481 1482 1482 1483 1482 1482 1481 1481 1481 1481 1481 1481 1481 1481 1480 1480 1480 1480 1481 1481 1481 1481 1481 1481 1481 1481 1480 1479 1479 1478 1478 1478 1478 1478 1478 1478 1478 1478 1478 1478 1478 1478 1478 1478 1477 1477 1477 1477 1476 1476 1476 1476 1477 1477 1476 1474 1474
1470 1474 1474 1471 1471 1473 1474 1476 1477 1480 1484 1483 1480 1479 1479 1481 1485 1486 1484 1483 1482 1482 1482 1482 1482 1482 1483 1482 1483 1483 1482 1482 1482 1482 1481 1481 1481 1480 1480 1480 1480 1480 1480 1479 1479 1479 1479 1479 1479 1479 1479 1479 1479 1479 1479 1478 1477 1476 1476 1476 1476 1476 1476 1476 1476 1476 1475 1475 1475 1475 1475 1475 1475 1474 1474 1474 1474 1474 1473 1473 1473 1473 1473 1472 1471 1472
1470 1474 1474 1471 1473 1477 1479 1478 1480 1483 1483 1481 1480 1481 1482 1483 1484 1484 1484 1483 1482 1482 1482 1482 1482 1482 1482 1482 1482 1482 1482 1482 1481 1481 1480 1480 1479 1479 1479 1479 1478 1478 1478 1478 1478 1477 1477 1477 1476 1476 1476 1476 1476 1477 1476 1476 1475 1474 1474 1474 1474 1474 1473 1473 1473 1473 1473 1473 1472 1472 1472 1472 1472 1472 1472 1472 1471 1471 1471 1471 1470 1469 1469 1470 1470 1470
1472 1472 1475 1474 1475 1478 1478 1475 1476 1479 1479 1479 1480 1481 1482 1483 1483 1483 1483 1482 1481 1482 1482 1481 1482 1482 1481 1481 1481 1481 1481 1481 1480 1480 1479 1478 1478 1477 1477 1477 1476 1476 1475 1475 1475 1475 1475 1474 1474 1474 1474 1474 1474 1474 1473 1473 1473 1472 1472 1472 1472 1471 1471 1471 1470 1470 1470 1470 1469 1469 1470 1469 1469 1469 1469 1468 1468 1468 1468 1468 1467 1467 1467 1467 1467 1468
1472 1474 1476 1475 1475 1475 1475 1473 1474 1475 1476 1478 1480 1481 1482 1482 1482 1482 1483 1482 1482 1482 1482 1482 1482 1481 1481 1482 1481 1480 1480 1480 1479 1478 1477 1476 1475 1475 1474 1474 1474 1473 1472 1472 1472 1472 1472 1471 1471 1471 1471 1470 1470 1471 1470 1470 1470 1469 1469 1469 1469 1469 1468 1468 1468 1467 1467 1467 1467 1467 1467 1467 1466 1466 1465 1465 1465 1465 1466 1465 1463 1464 1464 1464 1464 1466
1475 1479 1479 1478 1478 1479 1478 1476 1475 1477 1479 1479 1480 1481 1481 1481 1482 1482 1483 1483 1482 1483 1482 1482 1482 1481 1481 1481 1480 1479 1479 1478 1477 1476 1475 1474 1473 1472 1471 1471 1470 1470 1470 1469 1469 1469 1469 1468 1468 1468 1468 1468 1468 1468 1468 1467 1467 1466 1466 1466 1466 1466 1466 1465 1465 1464 1464 1464 1464 1464 1464 1464 1463 1462 1462 1462 1462 1462 1463 1462 1460 1461 1462 1462 1463 1464
1478 1482 1481 1479 1480 1480 1479 1477 1477 1480 1482 1482 1482 1482 1482 1482 1482 1482 1483 1483 1483 1483 1482 1481 1481 1480 1479 1478 1478 1477 1476 1475 1475 1474 1473 1472 1471 1469 1469 1468 1467 1467 1467 1466 1466 1466 1465 1465 1465 1465 1465 1465 1465 1466 1465 1465 1464 1464 1464 1464 1464 1463 1463 1462 1462 1461 1460 1460 1461 1461 1460 1460 1459 1458 1458 1459 1459 1459 1459 1459 1458 1458 1459 1460 1461 1461
1481 1483 1482 1482 1482 1481 1480 1479 1481 1483 1483 1482 1483 1483 1482 1483 1483 1483 1483 1483 1482 1481 1480 1479 1479 1478 1477 1476 1475 1474 1473 1473 1472 1472 1470 1470 1469 1467 1466 1465 1464 1464 1464 1463 1463 1463 1462 1462 1462 1461 1462 1462 1463 1463 1463 1462 1462 1461 1461 1460 1460 1460 1460 1459 1458 1457 1457 1457 1457 1457 1456 1455 1455 1455 1454 1455 1455 1456 1456 1456 1456 1456 1457 1458 1459 1460
1484 1484 1484 1486 1487 1485 1483 1483 1484 1485 1484 1483 1483 1483 1483 1483 1483 1482 1482 1481 1480 1480 1479 1478 1477 1477 1475 1474 1474 1473 1472 1471 1471 1470 1469 1467 1466 1466 1464 1463 1462 1461 1460 1460 1460 1460 1459 1459 1459 1459 1459 1460 1460 1460 1460 1459 1459 1458 1457 1457 1457 1457 1456 1455 1454 1454 1454 1454 1453 1453 1452 1452 1452 1451 1451 1451 1452 1452 1453 1454 1455 1455 1456 1457 1458 1460
1485 1485 1486 1488 1489 1488 1486 1485 1485 1485 1484 1483 1483 1483 1482 1482 1481 1481 1480 1480 1479 1478 1477 1476 1476 1475 1474 1473 1472 1471 1470 1469 1468 1468 1466 1465 1464 1463 1462 1461 1460 1458 1458 1458 1457 1457 1457 1457 1457 1457 1457 1457 1457 1457 1457 1456 1456 1455 1454 1454 1454 1453 1452 1451 1451 1451 1451 1450 1449 1449 1449 1449 1449 1448 1447 1447 1448 1448 1450 1451 1453 1456 1457 1458 1459 1461